#datint,netname,site,siteID,timestamp,IntT,BattV,AirT2,AirT,AirT_Avg,AirT_Max,AirT_Min,RH_Avg,RH_Max,RH_Min,EA_Avg,Td_Avg,Td_Max,Td_Min,WindS_Smp,WindS_Avg,WindD_Avg,WindD_SD,WindS_Max,ETo,ETr,SoilT4,SoilT8,SoilVWC8,SolarW_Avg,wetstate_Avg,wetT_Avg,Precip_accum,Precip_WPG,Precip_TB
15min,AgWx,beryljct,423,06APR2018:00:00:00,56.4,13.02,58.6,58.9,58.2,59.0,56.7,28,30,27,0.460,25.3,25.9,24.9,8.7,8.4,213,6.2,11.4,0.00063,0.00081,52.6,51.2,23,0,0,56.8,13.21,0.00,0.00
15min,AgWx,beryljct,423,06APR2018:00:15:00,57.1,13.02,58.7,58.2,58.6,58.8,58.2,27,28,27,0.467,25.2,25.4,24.9,2.017,5.4,214,7.7,7.5,0.00042,0.00059,52.5,51.2,22,0,0,57.0,13.21,0.00,0.00
15min,AgWx,beryljct,423,06APR2018:00:30:00,56.7,13.01,52.5,48.9,53.4,58.1,48.3,36,46,28,0.515,26.8,28.4,25.4,4.319,3.1,114,58,4.8,0.00010,0.00018,52.3,51.2,22,0,0,52.7,13.21,0.00,0.00
15min,AgWx,beryljct,423,06APR2018:00:45:00,54.9,13.01,48.5,48.5,48.3,49.2,47.3,45,48,43,0.521,28.1,28.7,27.5,1.6,1.6,70,10,4.8,-0.00010,-0.00011,52.2,51.2,23,0,0,47.6,13.21,0.00,0.00
15min,AgWx,beryljct,423,06APR2018:01:00:00,53.3,13,49.2,49.9,48.8,49.9,47.9,44,46,40,0.486,27.8,28.6,26.4,0,0.4,74,7.3,2.5,-0.00028,-0.00042,52.0,51.0,22,0,0,47.3,13.21,0.00,0.00
15min,AgWx,beryljct,423,06APR2018:01:15:00,52.2,13,49.6,49.3,49.4,50.4,48.7,40,43,37,0.476,26.0,27.2,25.0,0,0.8,14,9.4,3.1,-0.00023,-0.00032,51.9,50.9,22,0,0,47.9,13.21,0.00,0.00
15min,AgWx,beryljct,423,06APR2018:01:30:00,51.3,12.99,50.5,50.4,50.1,51.2,49.2,38,42,36,0.459,25.6,27.3,25.1,0.57,0.3,14,0.4,1.9,-0.00033,-0.00050,51.8,50.9,22,0,0,47.2,13.21,0.00,0.00
15min,AgWx,beryljct,423,06APR2018:01:45:00,50.7,12.99,49.3,50.7,49.0,50.7,47.7,41,45,37,0.464,26.3,27.6,25.0,0.395,1.1,256,78,3.1,-0.00017,-0.00023,51.6,51.1,23,0,0,47.2,13.22,0.00,0.00
15min,AgWx,beryljct,423,06APR2018:02:00:00,50.2,12.98,47.5,47.0,47.6,50.7,46.7,43,46,37,0.471,26.4,27.1,25.2,1.732,1.2,334,9.7,4.3,-0.00017,-0.00022,51.5,50.9,22,0,0,47.0,13.22,0.00,0.00
15min,AgWx,beryljct,423,06APR2018:02:15:00,49.8,12.97,48.9,47.9,48.5,49.7,47.1,39,43,37,0.460,24.9,25.8,24.3,4.034,2.4,337,1.6,4.0,-0.00000,0.00004,51.3,51.1,23,0,0,47.4,13.22,0.00,0.00
15min,AgWx,beryljct,423,06APR2018:02:30:00,49.7,12.96,48.8,47.8,48.5,50.7,47.5,41,44,35,0.493,25.8,26.9,24.4,2.061,3.1,309,19,4.2,0.00007,0.00013,51.2,51.0,22,0,0,47.9,13.22,0.00,0.00
15min,AgWx,beryljct,423,06APR2018:02:45:00,49.6,12.96,49.1,49.4,48.6,49.4,47.2,40,45,38,0.460,25.5,27.0,24.6,2.126,1.3,306,3.8,2.5,-0.00014,-0.00018,51.0,51.0,23,0,0,47.8,13.22,0.00,0.00
15min,AgWx,beryljct,423,06APR2018:03:00:00,49.7,12.96,50.6,50.1,50.3,50.8,49.7,37,40,36,0.480,25.3,26.3,24.7,1.118,1.2,355,18,3.3,-0.00016,-0.00020,50.9,51.0,23,0,0,49.0,13.22,0.00,0.00
15min,AgWx,beryljct,423,06APR2018:03:15:00,50.0,12.95,50.6,49.8,50.3,51.2,49.8,39,41,35,0.492,26.2,27.5,24.8,0,0.3,95,32,2.0,-0.00032,-0.00049,50.7,50.9,23,0,0,49.1,13.22,0.00,0.00
15min,AgWx,beryljct,423,06APR2018:03:30:00,50.2,12.95,50.2,49.4,50.0,51.3,49.4,42,46,38,0.547,27.7,29.3,26.1,2.631,1.4,145,29,3.3,-0.00013,-0.00016,50.6,50.9,23,0,0,49.4,13.22,0.00,0.00
15min,AgWx,beryljct,423,06APR2018:03:45:00,51.2,12.95,55.2,56.6,54.1,56.6,49.0,36,47,32,0.507,27.8,29.9,26.9,7.41,7.3,193,18,10.7,0.00043,0.00057,50.5,50.6,22,0,0,53.6,13.22,0.00,0.00
15min,AgWx,beryljct,423,06APR2018:04:00:00,53.6,12.95,58.8,58.8,58.3,59.2,56.5,29,33,28,0.485,26.6,27.4,26.1,10.87,10.2,218,8.2,13.4,0.00071,0.00089,50.4,50.8,23,0,0,57.9,13.21,0.00,0.00
15min,AgWx,beryljct,423,06APR2018:04:15:00,55.5,12.93,59.2,58.9,59.0,59.2,58.8,29,29,28,0.493,26.6,26.9,26.2,8.62,9.9,221,6.5,13.2,0.00071,0.00090,50.3,50.8,22,0,0,58.7,13.21,0.00,0.00
15min,AgWx,beryljct,423,06APR2018:04:30:00,56.7,12.94,58.8,58.2,58.7,59.1,58.2,29,30,28,0.495,26.8,27.1,26.3,7.826,8.8,215,6.2,12.5,0.00065,0.00083,50.2,50.7,22,0,0,58.2,13.21,0.00,0.00
15min,AgWx,beryljct,423,06APR2018:04:45:00,57.1,12.92,58.4,58.0,58.3,58.6,58.0,30,31,30,0.503,27.0,27.3,26.8,9.08,8.7,211,4.3,10.9,0.00063,0.00081,50.1,50.7,22,0,0,57.3,13.21,0.00,0.00
15min,AgWx,beryljct,423,06APR2018:05:00:00,57.2,12.92,57.7,57.4,57.6,58.1,57.3,31,32,30,0.516,27.4,27.8,27.1,8.35,9.5,212,5.1,11.4,0.00064,0.00082,50.1,50.6,22,0,0,56.4,13.21,0.00,0.00
15min,AgWx,beryljct,423,06APR2018:05:15:00,56.8,12.93,57.3,57.3,57.1,57.5,56.8,32,33,32,0.511,27.7,27.9,27.5,6.818,8.3,221,4.4,10.8,0.00056,0.00073,50.0,50.6,23,0,0,55.8,13.21,0.00,0.00
15min,AgWx,beryljct,423,06APR2018:05:30:00,56.3,12.92,54.7,50.3,55.2,57.3,50.3,34,39,32,0.478,27.3,28.2,25.8,2.718,4.1,186,68,7.4,0.00023,0.00035,50.0,50.5,22,0,0,54.3,13.21,0.00,0.00
15min,AgWx,beryljct,423,06APR2018:05:45:00,54.9,12.91,49.5,50.1,49.4,50.3,48.6,41,43,39,0.487,26.7,27.3,26.1,3.529,3.2,41,17,6.1,0.00008,0.00014,49.9,50.5,22,0,0,49.6,13.21,0.00,0.00
15min,AgWx,beryljct,423,06APR2018:06:00:00,53.6,12.91,51.2,50.6,50.9,51.2,50.3,39,41,38,0.505,26.5,27.8,26.1,0,0.8,12,6.3,3.9,-0.00022,-0.00030,49.9,50.5,22,0,0,50.4,13.21,0.00,0.00
15min,AgWx,beryljct,423,06APR2018:06:15:00,52.9,12.9,50.8,50.5,50.5,51.2,49.9,40,44,38,0.513,27.2,29.3,26.2,1.907,0.7,344,41,2.3,-0.00025,-0.00036,49.8,50.2,22,0,0,50.2,13.21,0.00,0.00
15min,AgWx,beryljct,423,06APR2018:06:30:00,52.3,12.9,50.5,51.3,50.1,51.3,49.5,43,47,40,0.540,28.4,30.3,27.3,2.368,0.8,271,19,2.5,0.00013,0.00022,49.7,50.4,22,0,0,49.9,13.21,0.00,0.00
15min,AgWx,beryljct,423,06APR2018:06:45:00,52.6,12.9,55.5,56.8,54.5,56.8,51.3,37,43,33,0.519,28.7,30.0,27.9,7.475,5.7,210,18,9.2,0.00084,0.00147,49.7,50.3,22,0,0,53.8,13.21,0.00,0.00
15min,AgWx,beryljct,423,06APR2018:07:00:00,53.6,12.9,55.7,55.8,55.6,56.9,54.3,35,38,33,0.521,28.5,29.5,28.0,6.489,5.6,201,10,7.4,0.00088,0.00154,49.6,50.3,22,0,0,55.5,13.21,0.00,0.00
15min,AgWx,beryljct,423,06APR2018:07:15:00,54.7,12.87,57.5,57.7,57.0,57.7,55.9,33,34,32,0.515,27.9,28.3,27.6,6.774,7.3,221,6.7,8.7,0.00116,0.00203,49.6,50.3,22,1,0,56.8,13.21,0.00,0.00
15min,AgWx,beryljct,423,06APR2018:07:30:00,55.9,12.9,58.6,58.9,58.3,58.9,57.6,31,32,29,0.503,27.5,28.0,27.0,11.05,9.3,229,6.3,12.8,0.00148,0.00257,49.5,50.2,22,6,0,58.3,13.21,0.00,0.00
15min,AgWx,beryljct,423,06APR2018:07:45:00,56.9,12.9,59.0,58.9,58.8,59.0,58.6,30,31,29,0.515,27.6,28.0,27.1,8.02,8.6,230,5.8,10.7,0.00147,0.00253,49.5,50.2,22,12,0,59.1,13.21,0.00,0.00
15min,AgWx,beryljct,423,06APR2018:08:00:00,57.6,12.9,58.8,58.6,58.6,59.0,58.3,31,32,30,0.519,28.1,28.5,27.6,9.14,8.2,226,7.2,12.1,0.00144,0.00244,49.4,50.1,22,22,0,59.2,13.21,0.00,0.00
15min,AgWx,beryljct,423,06APR2018:08:15:00,58.3,12.93,59.5,59.7,59.2,59.8,58.6,31,32,30,0.535,28.5,29.2,28.0,8.77,9.5,225,6.6,12.0,0.00175,0.00289,49.4,50.1,22,49,0,60.3,13.21,0.00,0.00
15min,AgWx,beryljct,423,06APR2018:08:30:00,59.1,12.98,60.5,60.5,60.2,60.6,59.7,30,31,29,0.529,28.9,29.4,28.5,10.57,9.2,229,6.0,12.0,0.00197,0.00313,49.4,50.1,22,90,0,62.3,13.21,0.00,0.00
15min,AgWx,beryljct,423,06APR2018:08:45:00,59.9,13,60.5,60.2,60.3,60.6,60.2,30,32,29,0.556,29.1,30.0,28.2,8.35,9.1,231,6.9,12.9,0.00205,0.00321,49.4,50.0,22,106,0,62.8,13.20,0.00,0.00
15min,AgWx,beryljct,423,06APR2018:09:00:00,60.4,13.03,60.7,61.0,60.5,61.1,60.2,31,32,29,0.546,29.6,30.6,28.8,10.61,8.5,231,9.1,10.7,0.00213,0.00324,49.4,50.0,22,140,0,63.4,13.20,0.00,0.00
15min,AgWx,beryljct,423,06APR2018:09:15:00,61.1,13.07,61.5,61.3,61.3,61.5,61.0,29,31,28,0.564,29.0,30.0,28.1,7.41,8.8,250,7.0,11.2,0.00231,0.00349,49.5,50.0,22,156,0,64.8,13.20,0.00,0.00
15min,AgWx,beryljct,423,06APR2018:09:30:00,61.7,13.18,61.9,62.2,61.7,62.2,61.3,29,30,27,0.543,28.9,30.3,28.0,8.33,7.9,247,7.5,10.3,0.00237,0.00348,49.5,49.9,22,190,0,66.5,13.20,0.00,0.00
15min,AgWx,beryljct,423,06APR2018:09:45:00,62.4,13.31,62.5,62.4,62.3,62.5,62.0,28,30,25,0.503,28.5,30.4,26.1,8.4,8.5,248,12,11.6,0.00261,0.00381,49.6,49.9,22,213,0,67.8,13.20,0.00,0.00
15min,AgWx,beryljct,423,06APR2018:10:00:00,63.3,14.2,63.3,64.0,63.1,64.3,62.2,26,30,24,0.504,28.0,30.3,26.6,6.577,7.7,249,9.4,10.8,0.00343,0.00465,49.7,49.9,22,415,0,74.1,13.20,0.00,0.00
15min,AgWx,beryljct,423,06APR2018:10:15:00,65.4,13.8,64.8,64.4,64.7,65.9,64.2,25,27,24,0.498,27.9,30.9,26.3,9.21,7.4,253,15,11.6,0.00378,0.00503,49.7,49.9,22,463,0,79.7,13.20,0.00,0.00
15min,AgWx,beryljct,423,06APR2018:10:30:00,66.2,13.64,64.3,64.1,64.2,64.6,63.8,25,27,23,0.511,27.8,29.7,25.5,10.15,8.1,265,12,11.1,0.00323,0.00450,49.9,49.8,22,325,0,74.0,13.20,0.00,0.00
15min,AgWx,beryljct,423,06APR2018:10:45:00,66.2,13.56,63.9,63.8,63.8,64.1,63.6,26,27,25,0.525,28.0,29.4,26.8,9.03,8.7,256,8.9,11.2,0.00300,0.00431,50.0,49.8,22,259,0,70.5,13.20,0.00,0.00
15min,AgWx,beryljct,423,06APR2018:11:00:00,66.3,13.97,64.4,65.0,64.2,65.1,63.7,26,27,24,0.557,28.2,30.2,26.6,3.617,6.7,263,13,9.6,0.00325,0.00437,50.2,49.8,22,358,0,73.9,13.20,0.00,0.00
15min,AgWx,beryljct,423,06APR2018:11:15:00,67.3,14.2,65.5,66.2,65.4,66.3,64.5,25,27,24,0.564,29.0,30.7,27.5,7.607,8.2,231,15,12.9,0.00467,0.00606,50.4,49.8,22,623,0,81.6,13.20,0.00,0.00
15min,AgWx,beryljct,423,06APR2018:11:30:00,68.6,14.09,66.3,67.2,66.3,67.3,65.5,25,27,24,0.574,29.5,31.6,27.8,11.4,8.9,229,18,13.9,0.00510,0.00660,50.6,49.8,22,682,0,85.3,13.19,0.00,0.00
15min,AgWx,beryljct,423,06APR2018:11:45:00,70.2,14.14,67.7,66.8,67.7,69.3,66.7,26,27,24,0.584,31.3,33.5,29.1,7.629,10.0,257,17,16.1,0.00588,0.00757,50.8,49.8,22,805,0,87.0,13.19,0.00,0.00
15min,AgWx,beryljct,423,06APR2018:12:00:00,70.9,14.19,67.7,67.9,67.7,68.2,66.6,26,27,25,0.602,31.5,32.7,30.4,12.06,11.2,257,20,19.1,0.00586,0.00766,51.0,49.8,22,792,0,84.3,13.20,0.00,0.00
15min,AgWx,beryljct,423,06APR2018:12:15:00,71.6,14.06,68.2,68.9,68.1,69.5,66.1,26,28,24,0.613,31.6,33.3,29.8,9.8,8.3,272,20,14.5,0.00605,0.00759,51.4,49.8,22,856,0,88.3,13.19,0.00,0.00
15min,AgWx,beryljct,423,06APR2018:12:30:00,72.7,14.06,69.3,68.4,69.3,70.8,68.2,26,27,25,0.632,33.1,34.5,31.6,8.9,10.5,268,22,17.0,0.00589,0.00767,51.7,49.8,22,765,0,86.2,13.19,0.00,0.00
15min,AgWx,beryljct,423,06APR2018:12:45:00,73.3,14.13,70.2,71.4,70.2,71.7,68.7,26,28,25,0.683,33.8,36.1,32.5,13.59,12.0,267,14,19.9,0.00674,0.00873,52.1,49.9,22,923,0,86.1,13.19,0.00,0.00
15min,AgWx,beryljct,423,06APR2018:13:00:00,73.7,13.62,70.5,71.6,70.6,72.2,69.2,26,27,25,0.673,33.9,35.5,32.4,12.32,13.4,266,19,20.6,0.00676,0.00890,52.5,49.9,22,895,0,85.3,13.19,0.00,0.00
15min,AgWx,beryljct,423,06APR2018:13:15:00,74.5,13.59,71.4,72.2,71.4,72.9,70.1,25,26,24,0.696,34.1,36.3,32.9,10.85,14.2,265,14,20.0,0.00771,0.01001,52.9,50.0,22,1046,0,87.4,13.19,0.00,0.00
15min,AgWx,beryljct,423,06APR2018:13:30:00,75.1,13.58,70.7,69.9,70.8,73.2,69.5,25,26,24,0.634,33.4,35.5,32.0,12.19,12.8,287,13,20.0,0.00594,0.00800,53.4,50.0,22,709,0,84.4,13.19,0.00,0.00
15min,AgWx,beryljct,423,06APR2018:13:45:00,74.8,13.62,70.3,70.6,70.3,71.2,69.5,25,26,24,0.639,33.0,34.3,31.9,13.9,12.2,278,16,19.0,0.00470,0.00661,53.8,50.1,22,463,0,79.9,13.19,0.00,0.00
15min,AgWx,beryljct,423,06APR2018:14:00:00,74.5,13.61,70.6,70.9,70.5,71.3,70.0,25,27,24,0.629,33.2,34.9,32.1,15.67,13.5,279,12,18.3,0.00501,0.00708,54.2,50.2,22,505,0,79.9,13.19,0.00,0.00
15min,AgWx,beryljct,423,06APR2018:14:15:00,74.2,13.67,70.6,71.0,70.6,71.2,70.1,25,26,24,0.635,33.0,34.3,31.9,18.9,15.5,276,14,22.0,0.00512,0.00738,54.6,50.3,22,484,0,79.0,13.20,0.00,0.00
15min,AgWx,beryljct,423,06APR2018:14:30:00,74.0,13.64,70.8,70.6,70.8,72.0,70.2,25,27,24,0.647,33.4,35.1,32.2,14.71,14.5,269,13,19.5,0.00507,0.00724,55.0,50.4,22,495,0,79.5,13.20,0.00,0.00
15min,AgWx,beryljct,423,06APR2018:14:45:00,73.6,13.63,70.0,69.9,70.0,70.7,69.5,25,27,24,0.607,32.6,34.3,31.3,10.81,11.5,250,25,16.2,0.00409,0.00590,55.2,50.5,22,357,0,77.0,13.20,0.00,0.00
15min,AgWx,beryljct,423,06APR2018:15:00:00,73.1,13.66,69.7,68.8,69.8,70.2,68.7,25,28,23,0.571,32.5,35.2,29.1,10.19,11.7,245,23,16.8,0.00389,0.00569,55.5,50.6,22,313,0,75.9,13.20,0.00,0.00
15min,AgWx,beryljct,423,06APR2018:15:15:00,72.3,13.69,68.8,68.6,68.8,69.4,68.4,24,25,23,0.559,30.1,30.9,29.2,14.16,13.1,214,8.8,18.9,0.00372,0.00565,55.7,50.8,22,244,0,74.0,13.20,0.00,0.00
15min,AgWx,beryljct,423,06APR2018:15:30:00,71.5,13.6,68.4,67.9,68.3,68.9,67.9,25,27,23,0.586,31.2,33.1,29.1,10.04,13.1,217,11,18.4,0.00353,0.00541,55.9,50.9,22,217,0,72.9,13.20,0.00,0.00
15min,AgWx,beryljct,423,06APR2018:15:45:00,70.6,13.73,67.7,67.5,67.6,67.9,67.4,29,33,25,0.758,34.1,37.7,30.5,13.83,11.2,249,32,17.3,0.00315,0.00473,56.0,51.0,22,223,0,71.9,13.20,0.00,0.00
15min,AgWx,beryljct,423,06APR2018:16:00:00,69.7,13.77,67.2,67.0,67.2,67.6,66.9,34,36,32,0.769,38.0,39.4,36.9,13.55,14.2,277,14,20.6,0.00345,0.00518,56.1,51.2,22,271,0,71.9,13.20,0.00,0.00
15min,AgWx,beryljct,423,06APR2018:16:15:00,69.3,13.76,66.7,66.4,66.6,67.0,66.3,35,37,34,0.788,38.2,39.6,37.5,12.3,13.0,264,12,18.0,0.00317,0.00476,56.2,51.3,22,252,0,71.4,13.20,0.00,0.00
15min,AgWx,beryljct,423,06APR2018:16:30:00,69.0,13.61,66.4,65.9,66.2,66.5,65.9,36,37,35,0.815,38.4,39.3,37.7,8.86,11.2,286,12,15.6,0.00277,0.00417,56.3,51.4,22,208,0,70.5,13.20,0.00,0.00
15min,AgWx,beryljct,423,06APR2018:16:45:00,68.3,13.41,65.5,64.8,65.4,65.9,64.8,38,40,36,0.813,39.0,39.9,38.3,12.12,12.0,289,9.0,16.3,0.00248,0.00387,56.3,51.6,22,139,0,67.7,13.20,0.00,0.00
15min,AgWx,beryljct,423,06APR2018:17:00:00,67.5,13.36,64.7,64.5,64.6,64.9,64.4,40,41,39,0.825,39.7,40.5,39.0,11.95,10.0,269,9.0,12.9,0.00211,0.00327,56.4,51.7,22,124,0,67.2,13.21,0.00,0.00
15min,AgWx,beryljct,423,06APR2018:17:15:00,66.5,13.39,63.7,62.8,63.7,64.5,62.8,44,47,40,0.922,41.2,42.5,39.8,11.29,12.9,281,9.1,17.0,0.00224,0.00352,56.4,51.8,22,135,0,65.7,13.21,0.00,0.00
15min,AgWx,beryljct,423,06APR2018:17:30:00,65.5,13.34,62.5,62.2,62.4,62.8,62.1,48,50,47,0.947,42.4,43.2,41.9,8.92,13.6,284,7.2,18.0,0.00206,0.00326,56.4,51.9,22,134,0,64.7,13.21,0.00,0.00
15min,AgWx,beryljct,423,06APR2018:17:45:00,64.9,13.28,61.6,60.7,61.5,62.3,60.7,51,53,49,0.960,43.2,43.6,42.7,12.17,13.1,283,8.3,16.8,0.00182,0.00290,56.4,52.0,22,126,0,64.2,13.21,0.00,0.00
15min,AgWx,beryljct,423,06APR2018:18:00:00,63.7,13.32,60.0,59.5,59.9,60.6,59.4,57,60,53,1.043,44.7,45.8,43.5,11.86,12.4,283,6.8,15.3,0.00144,0.00232,56.4,52.1,22,122,0,61.4,13.21,0.00,0.00
15min,AgWx,beryljct,423,06APR2018:18:15:00,62.5,13.28,59.4,59.1,59.3,59.5,59.1,60,62,58,0.999,45.4,46.4,44.4,12.87,11.4,283,8.4,15.3,0.00112,0.00188,56.4,52.2,22,108,0,61.3,13.22,0.00,0.00
15min,AgWx,beryljct,423,06APR2018:18:30:00,61.9,13.29,58.8,58.6,58.8,59.2,58.6,60,61,58,1.021,44.9,45.4,44.5,11.57,11.1,278,7.3,14.1,0.00091,0.00164,56.3,52.3,22,87,0,60.5,13.22,0.00,0.00
15min,AgWx,beryljct,423,06APR2018:18:45:00,61.2,13.23,58.2,57.9,58.2,58.6,57.8,63,64,61,1.038,45.5,45.8,45.1,9.54,10.2,277,7.0,13.0,0.00073,0.00136,56.3,52.4,23,76,0,59.8,13.22,0.00,0.00
15min,AgWx,beryljct,423,06APR2018:19:00:00,60.4,13.17,57.3,56.7,57.3,57.9,56.6,67,70,63,1.097,46.3,47.0,45.5,6.818,8.8,282,5.4,12.3,0.00036,0.00084,56.2,52.2,22,36,0,57.6,13.22,0.00,0.00
15min,AgWx,beryljct,423,06APR2018:19:15:00,59.3,13.11,56.2,55.6,56.2,56.6,55.6,72,75,69,1.129,47.3,47.9,46.6,9.01,8.6,288,5.6,10.6,0.00034,0.00042,56.2,52.5,23,22,7,55.6,13.22,0.00,0.00
15min,AgWx,beryljct,423,06APR2018:19:30:00,58.1,13.1,55.0,54.3,54.9,55.6,54.3,78,80,75,1.153,48.1,48.5,47.7,9.32,8.9,286,5.9,10.6,0.00025,0.00031,56.1,52.6,23,10,36,55.1,13.23,0.01,0.00
15min,AgWx,beryljct,423,06APR2018:19:45:00,57.1,13.1,54.0,53.5,53.9,54.3,53.5,81,83,80,1.148,48.3,48.5,48.1,9.58,8.6,280,7.0,11.1,0.00020,0.00025,56.0,52.7,23,6,76,52.4,13.24,0.01,0.00
15min,AgWx,beryljct,423,06APR2018:20:00:00,56.2,13.08,53.5,53.0,53.4,53.6,53.0,83,85,82,1.158,48.3,48.7,47.9,6.971,7.6,293,10,10.0,0.00016,0.00021,55.9,52.7,23,3,92,52.1,13.25,0.01,0.01
15min,AgWx,beryljct,423,06APR2018:20:15:00,55.6,13.07,53.1,52.9,52.9,53.1,52.7,86,87,84,1.189,48.8,49.2,48.5,2.433,4.1,306,18,7.1,0.00008,0.00012,55.8,52.8,23,0,100,51.9,13.26,0.01,0.00
15min,AgWx,beryljct,423,06APR2018:20:30:00,55.2,13.06,52.6,52.2,52.5,53.0,52.1,89,91,86,1.200,49.4,49.7,48.8,3.858,3.3,86,40,5.2,0.00005,0.00007,55.7,52.8,23,0,60,52.0,13.26,0.00,0.00
15min,AgWx,beryljct,423,06APR2018:20:45:00,54.9,13.06,52.3,52.0,52.1,52.3,52.0,90,91,90,1.192,49.3,49.6,49.1,1.359,1.3,166,29,4.5,0.00001,0.00002,55.5,52.8,23,0,0,51.6,13.26,0.00,0.00
15min,AgWx,beryljct,423,06APR2018:21:00:00,54.7,13.06,52.0,51.8,51.8,52.0,51.6,91,92,90,1.193,49.4,49.6,49.2,3.266,1.4,131,14,3.3,0.00001,0.00001,55.4,52.9,22,0,43,51.5,13.27,0.00,0.01
15min,AgWx,beryljct,423,06APR2018:21:15:00,54.4,13.05,51.7,51.3,51.6,51.9,51.3,92,93,91,1.190,49.3,49.5,49.2,3.201,3.4,152,11,4.3,0.00003,0.00005,55.3,52.9,23,0,21,51.4,13.27,0.00,0.00
15min,AgWx,beryljct,423,06APR2018:21:30:00,54.1,13.03,51.7,51.6,51.4,51.6,51.3,92,93,91,1.185,49.1,49.3,48.9,2.565,1.8,168,4.2,3.9,0.00001,0.00002,55.2,52.9,23,0,0,50.8,13.27,0.00,0.00
15min,AgWx,beryljct,423,06APR2018:21:45:00,53.8,13.04,51.5,51.3,51.3,51.6,51.1,92,92,91,1.179,49.0,49.2,48.7,3.551,2.4,182,6.3,4.0,0.00002,0.00003,55.1,52.7,22,0,0,50.8,13.27,0.00,0.00
15min,AgWx,beryljct,423,06APR2018:22:00:00,53.6,13.02,51.6,51.3,51.3,51.5,51.2,91,92,90,1.166,48.8,49.0,48.6,3.836,3.3,176,12,4.5,0.00004,0.00005,54.9,52.9,23,0,0,50.8,13.27,0.00,0.00
15min,AgWx,beryljct,423,06APR2018:22:15:00,53.5,13.01,51.9,51.6,51.6,51.9,51.3,89,91,87,1.156,48.6,48.9,48.3,3.288,2.9,184,16,5.9,0.00004,0.00006,54.8,53.0,22,0,0,51.0,13.27,0.00,0.00
15min,AgWx,beryljct,423,06APR2018:22:30:00,53.4,13.01,51.9,51.8,51.6,51.8,51.4,89,90,88,1.159,48.5,48.6,48.4,4.516,3.7,199,7.3,5.4,0.00006,0.00008,54.7,53.0,23,0,0,51.1,13.27,0.00,0.00
15min,AgWx,beryljct,423,06APR2018:22:45:00,53.4,13.01,52.1,51.2,51.9,52.4,51.2,87,90,84,1.158,48.2,48.5,47.7,0,2.3,144,26,5.0,0.00004,0.00007,54.5,53.0,23,0,0,51.4,13.26,0.00,0.00
15min,AgWx,beryljct,423,06APR2018:23:00:00,53.4,13,51.5,51.3,51.3,51.5,51.1,90,91,89,1.147,48.4,48.7,48.2,3.069,0.7,185,16,3.4,-0.00001,-0.00001,54.4,53.0,23,0,0,50.9,13.26,0.00,0.00
15min,AgWx,beryljct,423,06APR2018:23:15:00,53.4,13.01,52.1,52.2,51.7,52.2,51.3,87,89,85,1.124,48.0,48.4,47.6,0.088,1.3,227,5.9,3.0,0.00002,0.00003,54.3,52.9,23,0,0,51.2,13.27,0.00,0.00
15min,AgWx,beryljct,423,06APR2018:23:30:00,53.4,13.01,52.0,51.3,51.8,52.3,51.3,87,89,84,1.150,48.0,48.3,47.5,2.543,1.5,271,30,3.8,0.00003,0.00004,54.2,52.9,23,0,0,51.4,13.26,0.00,0.00
15min,AgWx,beryljct,423,06APR2018:23:45:00,53.3,13,51.4,50.9,51.2,51.8,50.7,90,92,87,1.161,48.4,48.7,48.0,2.17,2.4,317,27,3.9,0.00003,0.00005,54.1,52.9,23,0,0,51.1,13.26,0.00,0.00
15min,AgWx,beryljct,423,07APR2018:00:00:00,53.2,13,51.9,52.1,51.5,52.1,50.9,89,92,86,1.140,48.3,48.6,48.0,2.214,3.5,255,6.1,5.9,0.00005,0.00008,54.0,52.9,23,0,0,51.4,13.26,0.00,0.00
15min,AgWx,beryljct,423,07APR2018:00:15:00,53.2,12.99,51.4,50.6,51.3,52.1,50.6,89,92,86,1.153,48.2,48.4,47.9,2.324,1.8,30,63,3.5,0.00002,0.00004,53.9,52.9,22,0,0,51.4,13.26,0.00,0.00
15min,AgWx,beryljct,423,07APR2018:00:30:00,53.1,12.99,50.7,50.8,50.5,50.8,50.2,92,93,91,1.154,48.3,48.4,48.2,0,1.0,51,0.3,2.3,-0.00000,0.00000,53.8,52.9,23,0,0,50.7,13.26,0.00,0.00
15min,AgWx,beryljct,423,07APR2018:00:45:00,52.8,.,.,.,.,.,.,.,.,.,.,.,48.4,48.1,.,.,.,.,.,.,.,.,.,.,0,0,50.2,13.26,0.00,0.00
15min,AgWx,bigpiney,439,06APR2018:00:00:00,40.8,12.8,35.3,35.0,35.9,37.5,34.9,77,78,75,0.533,29.3,30.3,28.6,7.344,6.4,218,7.4,7.8,0.00011,0.00014,31.8,31.9,18,0,0,0.0,.,0.00,0.00
15min,AgWx,bigpiney,439,06APR2018:00:15:00,40.0,12.78,36.7,36.0,34.9,36.0,34.5,78,79,77,0.552,28.7,29.5,28.2,5.568,6.0,243,8.6,7.8,0.00010,0.00012,31.8,31.9,18,0,0,0.0,.,0.00,0.00
15min,AgWx,bigpiney,439,06APR2018:00:30:00,39.5,12.78,35.8,36.0,36.9,38.9,34.9,74,78,70,0.535,29.2,30.6,27.7,3.42,4.5,240,25,11.3,0.00010,0.00013,31.8,31.9,18,0,0,0.0,.,0.00,0.00
15min,AgWx,bigpiney,439,06APR2018:00:45:00,39.4,12.77,36.2,36.5,36.9,37.2,36.0,74,76,74,0.541,29.5,29.8,28.8,4.297,1.6,272,13,4.3,0.00002,0.00004,31.8,31.9,18,0,0,0.0,.,0.00,0.00
15min,AgWx,bigpiney,439,06APR2018:01:00:00,39.2,12.76,33.6,33.5,35.7,36.7,33.4,76,79,72,0.514,28.7,29.6,26.3,4.187,3.1,270,26,4.2,0.00006,0.00009,31.8,31.9,18,0,0,0.0,.,0.00,0.00
15min,AgWx,bigpiney,439,06APR2018:01:15:00,38.7,12.76,36.4,35.7,34.2,35.7,32.9,79,81,77,0.547,28.4,29.3,26.8,1.644,3.3,223,3.3,5.0,0.00005,0.00007,31.8,31.9,18,0,0,0.0,.,0.00,0.00
15min,AgWx,bigpiney,439,06APR2018:01:30:00,38.2,12.75,31.9,31.9,34.3,35.9,31.9,78,82,76,0.500,28.2,29.4,26.9,1.841,3.0,210,21,4.2,0.00005,0.00007,31.8,31.9,18,0,0,0.0,.,0.00,0.00
15min,AgWx,bigpiney,439,06APR2018:01:45:00,37.9,12.73,34.1,34.1,33.8,34.6,31.8,81,85,79,0.527,28.6,29.1,27.2,0,0.2,180,14,1.7,-0.00004,-0.00006,31.8,31.9,18,0,0,0.0,.,0.00,0.00
15min,AgWx,bigpiney,439,06APR2018:02:00:00,37.8,12.73,35.8,35.3,34.1,35.3,33.5,81,82,79,0.553,28.7,29.9,28.0,1.688,1.0,247,31,2.4,-0.00001,-0.00001,31.8,31.9,18,0,0,0.0,.,0.00,0.00
15min,AgWx,bigpiney,439,06APR2018:02:15:00,37.7,12.72,35.7,35.3,34.8,35.4,33.1,81,84,79,0.563,29.5,30.1,27.6,2.609,1.9,242,13,2.6,0.00002,0.00003,31.8,31.9,18,0,0,0.0,.,0.00,0.00
15min,AgWx,bigpiney,439,06APR2018:02:30:00,37.5,12.72,33.4,33.5,33.4,35.5,32.2,83,86,78,0.533,28.7,30.1,27.1,1.666,2.0,248,17,3.1,0.00001,0.00002,31.8,31.9,18,0,0,0.0,.,0.00,0.00
15min,AgWx,bigpiney,439,06APR2018:02:45:00,37.4,12.7,33.9,36.1,35.5,36.2,33.4,81,85,78,0.566,30.1,30.6,28.6,2.324,0.3,262,18,2.3,-0.00003,-0.00005,31.8,31.9,18,0,0,0.0,.,0.00,0.00
15min,AgWx,bigpiney,439,06APR2018:03:00:00,37.4,12.7,34.1,33.3,33.3,35.7,32.6,84,86,78,0.542,28.8,29.7,28.3,1.096,2.0,252,46,4.3,0.00001,0.00002,31.8,31.9,18,0,0,0.0,.,0.00,0.00
15min,AgWx,bigpiney,439,06APR2018:03:15:00,37.5,12.68,34.5,34.2,33.8,34.2,33.4,83,84,82,0.548,29.2,29.4,28.9,0,1.0,236,16,2.9,-0.00001,-0.00001,31.8,31.9,18,0,0,0.0,.,0.00,0.00
15min,AgWx,bigpiney,439,06APR2018:03:30:00,37.4,12.67,34.3,33.6,33.7,34.2,32.8,83,85,82,0.551,29.1,29.5,28.1,0,0.2,304,4.6,1.1,-0.00004,-0.00006,31.7,31.9,18,0,0,0.0,.,0.00,0.00
15min,AgWx,bigpiney,439,06APR2018:03:45:00,37.4,12.67,34.4,34.2,34.2,34.5,33.6,83,84,82,0.554,29.5,29.7,29.1,2.477,1.5,39,17,3.7,0.00000,0.00001,31.7,31.9,18,0,0,0.0,.,0.00,0.00
15min,AgWx,bigpiney,439,06APR2018:04:00:00,37.5,12.66,34.8,34.3,34.0,34.6,33.1,83,85,81,0.557,29.4,29.9,28.8,0,1.4,355,21,2.7,-0.00000,0.00000,31.7,31.9,18,0,0,0.0,.,0.00,0.00
15min,AgWx,bigpiney,439,06APR2018:04:15:00,37.5,12.65,34.3,33.9,34.2,34.4,33.8,83,85,83,0.553,29.6,29.7,29.3,2.214,1.3,334,41,2.9,-0.00000,-0.00000,31.7,31.9,18,0,0,0.0,.,0.00,0.00
15min,AgWx,bigpiney,439,06APR2018:04:30:00,37.5,12.64,33.2,33.2,33.7,33.9,33.2,84,85,84,0.545,29.5,29.8,29.2,2.762,2.9,299,5.6,4.0,0.00002,0.00004,31.7,31.9,18,0,0,0.0,.,0.00,0.00
15min,AgWx,bigpiney,439,06APR2018:04:45:00,37.3,12.63,34.0,33.3,33.3,33.6,33.0,85,86,85,0.553,29.4,29.7,28.9,3.529,3.5,292,4.9,4.1,0.00003,0.00004,31.7,31.9,18,0,0,0.0,.,0.00,0.00
15min,AgWx,bigpiney,439,06APR2018:05:00:00,37.1,12.62,34.0,33.5,33.8,34.2,33.3,85,86,84,0.555,29.8,30.3,29.5,2.258,3.2,282,5.0,4.0,0.00003,0.00004,31.7,31.9,18,0,0,0.0,.,0.00,0.00
15min,AgWx,bigpiney,439,06APR2018:05:15:00,37.0,12.6,34.2,33.6,33.9,34.2,33.5,85,86,84,0.559,29.8,30.1,29.3,2.017,2.3,272,3.5,3.4,0.00001,0.00002,31.7,31.8,18,0,0,0.0,.,0.00,0.00
15min,AgWx,bigpiney,439,06APR2018:05:30:00,37.0,12.6,33.4,33.1,33.1,34.0,32.2,86,88,83,0.554,29.4,30.0,28.0,0.767,1.2,327,78,2.9,-0.00001,-0.00001,31.7,31.9,18,0,0,0.0,.,0.00,0.00
15min,AgWx,bigpiney,439,06APR2018:05:45:00,36.9,12.59,33.1,32.2,32.4,33.2,31.6,88,89,86,0.543,29.1,29.7,28.1,0,0.9,212,31,3.2,-0.00002,-0.00003,31.7,32.0,18,0,0,0.0,.,0.00,0.00
15min,AgWx,bigpiney,439,06APR2018:06:00:00,36.7,12.57,34.0,33.5,33.1,33.5,32.3,88,89,87,0.565,29.8,30.1,29.3,0,0.0,112,0.0,0.6,-0.00004,-0.00007,31.7,31.9,18,0,0,0.0,.,0.00,0.00
15min,AgWx,bigpiney,439,06APR2018:06:15:00,36.8,12.56,32.8,32.3,32.9,33.6,32.2,88,89,86,0.552,29.7,30.2,29.0,1.206,0.2,174,2.4,1.5,-0.00004,-0.00006,31.7,31.9,18,0,48,0.0,.,0.00,0.00
15min,AgWx,bigpiney,439,06APR2018:06:30:00,36.8,12.55,33.8,33.3,32.8,33.3,32.2,89,90,88,0.569,29.9,30.3,29.4,0,0.4,196,2.2,2.6,-0.00003,-0.00005,31.7,31.9,18,0,100,0.0,.,0.00,0.00
15min,AgWx,bigpiney,439,06APR2018:06:45:00,36.8,12.54,33.6,33.3,33.4,33.5,33.3,88,88,88,0.569,30.3,30.4,30.2,0.986,0.2,81,16,1.5,-0.00004,-0.00006,31.7,31.9,18,0,100,0.0,.,0.00,0.00